Location: Marcé
(47.5801°N, 0.3280°W)
Time: 15:23:44
(UTC+01:00)

Explorer 7 - Pass Details

Date: 08 December 2021
Orbit: 483 x 674 km, 50.3° (Epoch: 19 January)

Event Time Altitude Azimuth Distance (km) Brightness Sun altitude
Rises 11:28:47 0° 286° (WNW) 2,662 10.0 17.1°
Reaches altitude 10° 11:31:26 10° 270° (W) 1,737 9.2 17.3°
Maximum altitude 11:34:22 20° 222° (SW) 1,193 9.1 17.5°
Drops below altitude 10° 11:37:12 10° 173° (S) 1,677 11.4 17.6°
Sets 11:39:44 0° 156° (SSE) 2,540 11.9 17.7°
